Regional Weather Roundup
Issued by NWS

Home | Current Version | Previous Version | Graphics & Text | Print | Product List | Glossary On
Versions: 1 2 3 4 5 6 7 8 9 10 11 12 13 14 15 16 17 18 19 20 21 22 23 24 25 26 27 28 29 30 31 32 33 34 35 36 37 38 39 40 41 42 43 44 45 46 47 48 49 50
989
ASUS45 KBOU 300207
RWRCO

WEATHER ROUNDUP FOR COLORADO
NATIONAL WEATHER SERVICE DENVER/BOULDER CO
800 PM MDT SAT APR 29 2017

NOTE: "FAIR" INDICATES FEW OR NO CLOUDS BELOW 12000 FEET WITH NO
SIGNIFICANT WEATHER AND/OR OBSTRUCTIONS TO VISIBILITY.

COZ001>005-013-030-031-300300-
...NORTHWEST COLORADO...

CITY           SKY/WX    TMP DP  RH WIND       PRES   REMARKS
CRAIG          MOCLDY    40  20  44 N16G25    30.11R
HAYDEN         MOCLDY    37  23  56 SE13      30.10R
MEEKER         FAIR      39  21  48 N16G26    30.12R
MOUNT WERNER   NOT AVBL
STEAMBOAT SPGS CLOUDY    35  22  57 SE7       30.10R WCI  29
WALDEN           N/A     25  12  58 E14       30.15R WCI  13
$$

COZ006>008-011-300300-
...WEST CENTRAL VALLEYS...

CITY           SKY/WX    TMP DP  RH WIND       PRES   REMARKS
GRAND JUNCTION FAIR      49  19  30 N23       30.07R
MONTROSE       MOCLDY    46  25  43 NW14      30.05R
EAGLE          MOCLDY    36  20  52 N5        30.13R
RIFLE          CLOUDY    44  26  49 E10       30.09R
DELTA          MOCLDY    51  22  32 N5        30.05R
NUCLA          FAIR      45  19  36 N14G20    30.09R
$$

COZ017>023-064>068-300300-
...SOUTHWEST COLORADO...

CITY           SKY/WX    TMP DP  RH WIND       PRES   REMARKS
DURANGO        CLOUDY    36  31  82 S3        29.98R
CORTEZ         MOCLDY    45  22  40 N13G29    30.01R
PAGOSA SPRINGS CLOUDY    38  26  60 SW5       29.99R
TELLURIDE      LGT SNOW  30  24  78 NW12G20   30.06R WCI  20
WOLF CREEK PAS SNOW      14  14 100 N9G20     30.06R VSB<1/4 WCI   2
$$

COZ009-010-012-014-032>034-037-058>063-300300-
...CENTRAL COLORADO...

CITY           SKY/WX    TMP DP  RH WIND       PRES   REMARKS
ASPEN          FAIR      33  20  58 NW5       30.06S WCI  29
BUENA VISTA    CLOUDY    29  26  86 CALM      30.07R
COPPER MTN     SNOW      19  14  79 MISG      30.07S VSB 1/4
BERTHOUD PASS  SNOW      10   0  61 N5        30.07S VSB<1/4 WCI   2
COTTONWOOD PAS LGT SNOW  27  21  80 CALM      30.05S
GUNNISON       FAIR      35  25  66 SW12      30.02R WCI  27
KREMMLING      MOCLDY    36  28  75 S3        30.14R
LEADVILLE      CLOUDY    21  16  81 N12       30.05R HAZE    WCI   9
MONARCH PASS   CLOUDY    16  12  86 NE10      30.13R WCI   3
SALIDA         CLOUDY    30  28  92 SE3       30.15R
SUNLIGHT       LGT SNOW  19  16  86 N5        30.14R VSB 1   WCI  13
WILKERSON PASS CLOUDY   N/A N/A N/A NE12      30.06R
$$

COZ069>075-300300-
...SAN LUIS VALLEY/SANGRE DE CRISTO MOUNTAINS...

CITY           SKY/WX    TMP DP  RH WIND       PRES   REMARKS
ALAMOSA        LGT SNOW  27  25  92 NW9       30.02S FOG     WCI  18
LA VETA PASS   SNOW      16  12  86 NE9       30.11S VSB 1/2 WCI   4
SAGUACHE       CLOUDY    34  16  47 N14G20    30.03R WCI  24
$$

COZ035-036-038>040-300300-
...NORTHERN COLORADO FRONT RANGE...

CITY           SKY/WX    TMP DP  RH WIND       PRES   REMARKS
DENVER INTL AP CLOUDY    30  25  81 N13       30.18F WCI  20
DMNS CITY PARK   N/A     30  28  92 N14       30.20S WCI  19
AURORA         LGT SNOW  28  28  98 N12       30.19F FOG     WCI  18
FRONT RANGE AP LGT SNOW  32  28  86 NW15      30.19S WCI  22
ERIE MUNI ARPT CLOUDY    32  28  84 N5        30.22S WCI  27
BOULDER MUN AP LGT SNOW  32  30  93 W6        30.21F WCI  26
CENTENNIAL     LGT SNOW  27  26  96 N12       30.18S FOG     WCI  17
BROOMFIELD     LGT SNOW  30  28  93 N13       30.21S FOG     WCI  20
FORT COLLINS   FAIR      33  23  66 NW12      30.22S WCI  24
LONGMONT       CLOUDY    36  24  62 N9        30.24S
$$

COZ041-046-047-076>085-087-088-300300-
...PIKES PEAK/PALMER DIVIDE AND SOUTHERN FOOTHILLS...

CITY           SKY/WX    TMP DP  RH WIND       PRES   REMARKS
COLO. SPRINGS  CLOUDY    30  21  69 NW21G44   30.10R WCI  17
A. F. ACADEMY  MIX PCPN  26  21  83 N22G31    30.10R WCI  11
SCHRIEVER AFB  MOCLDY    26  21  81 N24G37    30.07F WCI  11
ELLICOTT       LGT RAIN N/A N/A N/A N30G39    30.05R
FALCON         LGT SNOW  24  20  83 N29G39    30.08R WCI   8
FORT CARSON    NOT AVBL
LIMON          LGT SNOW  29  28  96 N30G38    30.09F FOG     WCI  13
MONUMENT HILL  LGT SNOW  21  21 100 N18G25    30.14S WCI   6
TRINIDAD       LGT SNOW  28  24  85 N14       30.08S FOG     WCI  17
$$

COZ042>045-048>051-090-091-300300-
...NORTHEAST COLORADO...

CITY           SKY/WX    TMP DP  RH WIND       PRES   REMARKS
GREELEY ARPT   FAIR      36  23  59 NW10G20   30.22
AKRON          CLOUDY    37  22  54 N18G29    30.12S
BURLINGTON     NOT AVBL
WRAY           NOT AVBL
STERLING       CLOUDY    41  25  52 N10       30.13S
HOLYOKE        FAIR      45  19  36 N21G33    30.11S
FORT MORGAN    CLOUDY    38  22  53 N12G17    30.17S
$$

COZ086-089-092>099-300300-
...SOUTHEAST COLORADO...

CITY           SKY/WX    TMP DP  RH WIND       PRES   REMARKS
PUEBLO         CLOUDY    35  26  69 N17       30.11F WCI  25
LA JUNTA       CLOUDY    35  30  82 N23       30.06F WCI  23
LAMAR          LGT SNOW  33  31  92 N20       29.99F FOG     WCI  21
SPRINGFIELD      N/A     30  30 100 N36G43    29.93F WCI  14
$$




USA.gov is the U.S. government's official web portal to all federal, state and local government web resources and services.